This is the latest recevied weather packets stored in our database for station/object KC1TEM-13. If no packets are shown the sender has not sent any weather packets the latest 10 day(s).
| Time | Temp. | Humidity | Pressure | Rain* | Wind** | Luminosity | Snow |
|---|---|---|---|---|---|---|---|
| 1787959500 | 23.89° C | 87% | 1015.4 hPa | 0 mm | - | 2 W/m² | - |
| 1787959194 | 23.89° C | 86% | 1015.3 hPa | 0 mm | - | 4 W/m² | - |
| 1787958889 | 24.44° C | 86% | 1015.3 hPa | 0 mm | - | 6 W/m² | - |
| 1787958589 | 24.44° C | 86% | 1015.2 hPa | 0 mm | - | 8 W/m² | - |
| 1787958285 | 24.44° C | 86% | 1015.1 hPa | 0 mm | - | 11 W/m² | - |
| 1787957985 | 24.44° C | 85% | 1015 hPa | 0 mm | - | 14 W/m² | - |
| 1787957684 | 25° C | 85% | 1014.8 hPa | 0 mm | - | 16 W/m² | - |
| 1787957380 | 25° C | 84% | 1014.8 hPa | 0 mm | - | 22 W/m² | - |
| 1787957079 | 25° C | 83% | 1014.8 hPa | 0 mm | - | 27 W/m² | - |
| 1787956779 | 25° C | 83% | 1014.7 hPa | 0 mm | - | 25 W/m² | - |
| 1787956475 | 25° C | 83% | 1014.9 hPa | 0 mm | - | 23 W/m² | - |
| 1787956175 | 25° C | 83% | 1014.7 hPa | 0 mm | - | 25 W/m² | - |
| 1787955875 | 25° C | 83% | 1014.8 hPa | 0 mm | - | 37 W/m² | - |
| 1787955571 | 25° C | 81% | 1014.9 hPa | 0 mm | - | 53 W/m² | - |
| 1787955267 | 25° C | 82% | 1015.1 hPa | 0 mm | - | 36 W/m² | - |
| 1787954966 | 25° C | 81% | 1015.2 hPa | 0 mm | - | 31 W/m² | - |
| 1787954662 | 25° C | 80% | 1015 hPa | 0 mm | - | 33 W/m² | - |
| 1787954361 | 25° C | 79% | 1014.9 hPa | 0 mm | - | 33 W/m² | - |
| 1787954057 | 25° C | 79% | 1015.1 hPa | 0 mm | - | 42 W/m² | - |
| 1787953755 | 25.56° C | 80% | 1014.9 hPa | 0 mm | - | 37 W/m² | - |
| 1787953451 | 26.11° C | 80% | 1014.8 hPa | 0 mm | - | 42 W/m² | - |
| 1787953148 | 26.67° C | 76% | 1014.8 hPa | 0 mm | - | 59 W/m² | - |
| 1787952847 | 26.67° C | 77% | 1015 hPa | 0 mm | - | 70 W/m² | - |
| 1787952542 | 26.67° C | 77% | 1015 hPa | 0 mm | - | 79 W/m² | - |
| 1787952241 | 26.67° C | 76% | 1014.9 hPa | 0 mm | - | 95 W/m² | - |
* Rain latest hour (hover to see other rain measurements)
** Current wind speed in m/s (hover to see current wind gust speed)